Location: Cheyres
(46.8153°N, 6.7877°E)
Time: 01:25:19
(UTC+00:00)

Meteor 1-27 Rocket - Pass Details

Date: 11 May 2021
Orbit: 829 x 910 km, 81.3° (Epoch: 23 June)

Event Time Altitude Azimuth Distance (km) Brightness Sun altitude
Exits shadow 21:58:49 28° 209° (SSW) 1,602 4.8 -21.9°
Maximum altitude 22:01:56 66° 284° (WNW) 978 4.1 -22.1°
Drops below altitude 10° 22:07:51 10° 6° (N) 2,601 7.1 -22.5°
Sets 22:10:22 0° 10° (N) 3,551 7.9 -22.7°
